This is the latest recevied weather packets stored in our database for station/object KJ5IIV. If no packets are shown the sender has not sent any weather packets the latest 10 day(s).
| Time | Temp. | Humidity | Pressure | Rain* | Wind** | Luminosity | Snow |
|---|---|---|---|---|---|---|---|
| 1777831559 | 27.78° C | 38% | 1020.5 hPa | 0 mm | - | 962 W/m² | - |
| 1777831256 | 27.78° C | 39% | 1020.7 hPa | 0 mm | - | 966 W/m² | - |
| 1777830953 | 27.22° C | 38% | 1020.7 hPa | 0 mm | - | 967 W/m² | - |
| 1777830650 | 27.22° C | 41% | 1020.7 hPa | 0 mm | - | 965 W/m² | - |
| 1777830347 | 27.22° C | 38% | 1020.9 hPa | 0 mm | - | 961 W/m² | - |
| 1777830044 | 27.22° C | 40% | 1021.1 hPa | 0 mm | - | 957 W/m² | - |
| 1777829739 | 27.22° C | 38% | 1021.1 hPa | 0 mm | - | 953 W/m² | - |
| 1777829435 | 26.67° C | 39% | 1021.2 hPa | 0 mm | - | 947 W/m² | - |
| 1777829133 | 26.67° C | 38% | 1021.1 hPa | 0 mm | - | 943 W/m² | - |
| 1777828830 | 26.11° C | 42% | 1021.3 hPa | 0 mm | - | 933 W/m² | - |
| 1777828526 | 26.67° C | 40% | 1021.2 hPa | 0 mm | - | 928 W/m² | - |
| 1777828224 | 26.11° C | 41% | 1021.3 hPa | 0 mm | - | 918 W/m² | - |
| 1777827920 | 26.11° C | 40% | 1021.4 hPa | 0 mm | - | 909 W/m² | - |
| 1777827618 | 26.11° C | 40% | 1021.2 hPa | 0 mm | - | 898 W/m² | - |
| 1777827315 | 26.11° C | 43% | 1021.4 hPa | 0 mm | - | 891 W/m² | - |
| 1777827011 | 26.11° C | 41% | 1021.5 hPa | 0 mm | - | 874 W/m² | - |
| 1777826708 | 25.56° C | 42% | 1021.4 hPa | 0 mm | - | 871 W/m² | - |
| 1777826404 | 25.56° C | 44% | 1021.6 hPa | 0 mm | - | 866 W/m² | - |
| 1777826102 | 26.11° C | 42% | 1021.6 hPa | 0 mm | - | 861 W/m² | - |
| 1777825798 | 26.11° C | 41% | 1021.4 hPa | 0 mm | - | 854 W/m² | - |
| 1777825496 | 25.56° C | 43% | 1021.7 hPa | 0 mm | - | 854 W/m² | - |
| 1777825193 | 25° C | 49% | 1021.4 hPa | 0 mm | - | 849 W/m² | - |
| 1777824890 | 25° C | 42% | 1021.4 hPa | 0 mm | - | 840 W/m² | - |
| 1777824586 | 25° C | 45% | 1021.6 hPa | 0 mm | - | 771 W/m² | - |
| 1777824283 | 25° C | 45% | 1021.6 hPa | 0 mm | - | 819 W/m² | - |
* Rain latest hour (hover to see other rain measurements)
** Current wind speed in m/s (hover to see current wind gust speed)